Home > Weather > Jalpaiguri > Past weeks

Flag for India Past Weather in Jalpaiguri, West Bengal, India — Yesterday and Last 2 Weeks

Now
95 °F

Scattered clouds.


Feels Like: 124 °F
Forecast: 80 / 90 °F
Wind: 9 mph from Northeast

Location: Lucknow / Amausi

Current Time: Jun 27, 2016 at 6:39:41 PM

Latest Report: Jun 27, 2016 at 6:00 PM


Visibility: 3 mi

Pressure: 29.45 "Hg

Humidity: 71%

Dew Point: 84 °F

Location of JalpaiguriLocation

Past Weather in Jalpaiguri — Graph

°F

Jalpaiguri Temperature Yesterday

Maximum temperature yesterday: 100 °F (at 3:00 PM)
Minimum temperature yesterday: 86 °F (at 12:00 AM)
Average temperature yesterday: 93 °F

High & Low Weather Summary for the Past Weeks

 TemperatureHumidityPressure
High109 °F (Jun 13, 2:30 PM)100% (Jun 15, 5:30 PM)29.68 "Hg (Jun 15, 5:30 PM)
Low75 °F (Jun 21, 7:30 AM)28% (Jun 12, 6:00 PM)29.36 "Hg (Jun 14, 5:00 PM)
Average92 °F68%29.52 "Hg
* Reported Jun 12 4:30 PM — Jun 27 5:00 PM, Jalpaiguri, Weather by CustomWeather, © 2016

Note: Actual official high and low records may vary slightly from our data, if they occured in-between our weather recording intervals... More about our weather records

Advertising

Jalpaiguri Weather History for the Previous 24 Hours

Scroll right to see more
 ConditionsComfort  
Time TempWeatherWind HumidityBarometerVisibility
5:00 PM
Mon, Jun 27
97 °FScattered clouds.7 mph67%29.45 "Hg3 mi
4:30 PM97 °FScattered clouds.5 mph67%29.45 "Hg3 mi
4:00 PM99 °FBroken clouds.7 mph64%29.45 "Hg3 mi
3:30 PM99 °FBroken clouds.7 mph64%29.47 "Hg3 mi
3:00 PM97 °FBroken clouds.7 mph67%29.47 "Hg3 mi
2:30 PM97 °FBroken clouds.7 mph67%29.50 "Hg3 mi
2:00 PM97 °FBroken clouds.7 mph67%29.50 "Hg3 mi
1:30 PM95 °FBroken clouds.7 mph67%29.53 "Hg2 mi
1:00 PM95 °FBroken clouds.7 mph67%29.53 "Hg2 mi
12:30 PM93 °FBroken clouds.7 mph71%29.53 "Hg2 mi
12:00 PM93 °FBroken clouds.7 mph71%29.56 "Hg2 mi
11:30 AM91 °FBroken clouds.6 mph71%29.56 "Hg2 mi
10:30 AM90 °FBroken clouds.7 mph71%29.56 "Hg2 mi
10:00 AM88 °FBroken clouds.7 mph75%29.56 "Hg2 mi
9:30 AM86 °FBroken clouds.6 mph79%29.56 "Hg2 mi
9:00 AM84 °FBroken clouds.6 mph84%29.59 "Hg2 mi
8:30 AM82 °FBroken clouds.5 mph84%29.59 "Hg1 mi
8:00 AM82 °FBroken clouds.3 mph84%29.56 "Hg1 mi
7:30 AM82 °FFog.3 mph84%29.56 "Hg1 mi
7:00 AM82 °FFog.6 mph89%29.53 "Hg1 mi
6:00 AM81 °FThundershowers. More clouds than sun.6 mph89%29.53 "Hg1 mi
5:30 AM79 °FMostly cloudy.7 mph100%29.53 "HgN/A
3:00 AM90 °FThundershowers. Partly cloudy.3 mph79%29.53 "Hg2 mi
2:00 AM90 °FPartly cloudy.5 mph79%29.53 "Hg2 mi
1:00 AM90 °FPartly cloudy.5 mph79%29.53 "Hg2 mi
12:00 AM90 °FPartly cloudy.No wind75%29.53 "Hg2 mi
11:00 PM
Sun, Jun 26
91 °FPartly cloudy.No wind75%29.56 "Hg2 mi
10:00 PM91 °FPartly cloudy.No wind75%29.56 "Hg2 mi
9:00 PM93 °FPartly cloudy.2 mph71%29.53 "Hg2 mi
8:30 PM93 °FPartly cloudy.5 mph71%29.53 "Hg2 mi
8:00 PM95 °FPartly cloudy.5 mph67%29.50 "Hg2 mi
7:30 PM95 °FBroken clouds.6 mph67%29.50 "Hg2 mi
7:00 PM97 °FScattered clouds.3 mph63%29.47 "Hg2 mi
6:30 PM97 °FScattered clouds.6 mph63%29.47 "Hg2 mi
6:00 PM99 °FScattered clouds.6 mph60%29.47 "Hg2 mi
Weather by CustomWeather, © 2016

See weather overviewHow to use our weather pages